EZY51UW EGNS-EGGD

Flight info

Callsign EZY51UW
Flight time 0h 37m
Altitude 23000
Route TIMIS Q39 NOMSU Q4 WAL N862 WEVBE
Aircraft A320/M-SDE2E3FGHIJ1RWXY/LB1

Departure

Time 2026-04-21 19:59
Airport Isle of Man Airport (EGNS)

Arrival

Time 2026-04-21 20:36
Airport Bristol Airport (EGGD)
Time Latitude Longitude Altitude Speed Heading
2026-04-21 19:29 54.08629 -4.63267 44 ft 0 kts 224°
2026-04-21 19:49 54.08643 -4.63246 45 ft 3 kts 208°
2026-04-21 19:49 54.08664 -4.63234 42 ft 3 kts 181°
2026-04-21 19:50 54.08685 -4.63239 45 ft 3 kts 149°
2026-04-21 19:50 54.08695 -4.63251 45 ft 0 kts 134°
2026-04-21 19:52 54.08686 -4.63236 41 ft 4 kts 134°
2026-04-21 19:52 54.08661 -4.63191 45 ft 7 kts 134°
2026-04-21 19:53 54.08628 -4.63131 45 ft 8 kts 134°
2026-04-21 19:53 54.08582 -4.63053 46 ft 10 kts 141°
2026-04-21 19:53 54.08514 -4.63015 44 ft 10 kts 168°
2026-04-21 19:53 54.08459 -4.62995 43 ft 7 kts 168°
2026-04-21 19:54 54.08425 -4.62989 43 ft 4 kts 189°
2026-04-21 19:54 54.08410 -4.63028 43 ft 7 kts 253°
2026-04-21 19:54 54.08396 -4.63130 43 ft 9 kts 258°
2026-04-21 19:54 54.08384 -4.63229 43 ft 8 kts 258°
2026-04-21 19:55 54.08373 -4.63317 41 ft 7 kts 258°
2026-04-21 19:55 54.08364 -4.63393 43 ft 6 kts 258°
2026-04-21 19:55 54.08353 -4.63480 43 ft 9 kts 258°
2026-04-21 19:55 54.08341 -4.63570 46 ft 5 kts 256°
2026-04-21 19:56 54.08326 -4.63638 47 ft 10 kts 243°
2026-04-21 19:56 54.08295 -4.63732 45 ft 8 kts 240°
2026-04-21 19:56 54.08268 -4.63817 43 ft 3 kts 241°
2026-04-21 19:56 54.08253 -4.63861 43 ft 4 kts 241°
2026-04-21 19:57 54.08228 -4.63904 40 ft 5 kts 205°
2026-04-21 19:57 54.08182 -4.63893 35 ft 9 kts 167°
2026-04-21 19:57 54.08149 -4.63872 34 ft 3 kts 141°
2026-04-21 19:57 54.08145 -4.63842 33 ft 3 kts 85°
2026-04-21 19:58 54.08147 -4.63824 35 ft 0 kts 78°
2026-04-21 19:58 54.08153 -4.63779 36 ft 25 kts 78°
2026-04-21 19:59 54.08244 -4.63049 44 ft 96 kts 78°
2026-04-21 19:59 54.08422 -4.61634 201 ft 136 kts 78°
2026-04-21 19:59 54.08571 -4.60049 942 ft 138 kts 94°
2026-04-21 19:59 54.08095 -4.58568 1534 ft 163 kts 134°
2026-04-21 20:00 54.06902 -4.57879 1920 ft 206 kts 170°
2026-04-21 20:00 54.05370 -4.58035 2422 ft 235 kts 178°
2026-04-21 20:00 54.03676 -4.58365 3113 ft 252 kts 179°
2026-04-21 20:00 54.01909 -4.58712 4118 ft 256 kts 180°
2026-04-21 20:01 54.00132 -4.58955 5173 ft 254 kts 172°
2026-04-21 20:01 53.98439 -4.58264 6104 ft 251 kts 149°
2026-04-21 20:01 53.97087 -4.56437 6982 ft 251 kts 127°
2026-04-21 20:01 53.95999 -4.54087 7900 ft 254 kts 125°
2026-04-21 20:02 53.94906 -4.51702 8829 ft 257 kts 126°
2026-04-21 20:02 53.93796 -4.49282 9717 ft 263 kts 126°
2026-04-21 20:02 53.92668 -4.46827 10589 ft 268 kts 126°
2026-04-21 20:02 53.91483 -4.44252 10929 ft 292 kts 126°
2026-04-21 20:03 53.90182 -4.41439 11351 ft 310 kts 127°
2026-04-21 20:03 53.88819 -4.38499 12136 ft 315 kts 126°
2026-04-21 20:03 53.87477 -4.35609 12967 ft 318 kts 127°
2026-04-21 20:03 53.86094 -4.32632 13728 ft 322 kts 126°
2026-04-21 20:04 53.84709 -4.29652 14508 ft 326 kts 127°
2026-04-21 20:04 53.83289 -4.26601 15168 ft 330 kts 126°
2026-04-21 20:04 53.81851 -4.23521 15778 ft 337 kts 127°
2026-04-21 20:04 53.80393 -4.20400 16485 ft 340 kts 127°
2026-04-21 20:05 53.78909 -4.17224 17048 ft 347 kts 128°
2026-04-21 20:05 53.77410 -4.14018 17739 ft 350 kts 128°
2026-04-21 20:05 53.75895 -4.10784 18528 ft 350 kts 128°
2026-04-21 20:05 53.74381 -4.07561 19116 ft 354 kts 128°
2026-04-21 20:06 53.72824 -4.04257 19518 ft 363 kts 128°
2026-04-21 20:06 53.71233 -4.00889 19953 ft 371 kts 128°
2026-04-21 20:06 53.69599 -3.97437 20346 ft 380 kts 129°
2026-04-21 20:06 53.67944 -3.93909 20761 ft 388 kts 128°
2026-04-21 20:07 53.66310 -3.90183 21027 ft 400 kts 126°
2026-04-21 20:07 53.64703 -3.86309 21511 ft 405 kts 125°
2026-04-21 20:07 53.63098 -3.82356 21967 ft 411 kts 124°
2026-04-21 20:07 53.61472 -3.78347 22413 ft 417 kts 124°
2026-04-21 20:08 53.59813 -3.74291 22832 ft 423 kts 125°
2026-04-21 20:08 53.58119 -3.70197 23271 ft 429 kts 125°
2026-04-21 20:08 53.56397 -3.66072 23381 ft 427 kts 126°
2026-04-21 20:08 53.54542 -3.62324 23395 ft 420 kts 139°
2026-04-21 20:09 53.52216 -3.59375 23406 ft 417 kts 147°
2026-04-21 20:09 53.49818 -3.56645 23397 ft 416 kts 147°
2026-04-21 20:09 53.47413 -3.53941 23391 ft 416 kts 148°
2026-04-21 20:09 53.44998 -3.51244 23391 ft 416 kts 148°
2026-04-21 20:10 53.42583 -3.48549 23395 ft 416 kts 148°
2026-04-21 20:10 53.40172 -3.45855 23396 ft 416 kts 147°
2026-04-21 20:10 53.37761 -3.43161 23387 ft 416 kts 147°
2026-04-21 20:10 53.35355 -3.40476 23387 ft 416 kts 147°
2026-04-21 20:11 53.32945 -3.37784 23387 ft 416 kts 147°
2026-04-21 20:11 53.30541 -3.35100 23387 ft 416 kts 147°
2026-04-21 20:11 53.28131 -3.32415 23385 ft 416 kts 148°
2026-04-21 20:11 53.25718 -3.29733 23386 ft 416 kts 148°
2026-04-21 20:12 53.23301 -3.27052 23388 ft 416 kts 148°
2026-04-21 20:12 53.20884 -3.24372 23386 ft 416 kts 148°
2026-04-21 20:12 53.19288 -3.22603 23371 ft 416 kts 148°
2026-04-21 20:12 53.16064 -3.19032 23369 ft 417 kts 148°
2026-04-21 20:13 53.13671 -3.16390 23368 ft 417 kts 148°
2026-04-21 20:13 53.11255 -3.13728 23371 ft 417 kts 148°
2026-04-21 20:13 53.08835 -3.11065 23371 ft 417 kts 148°
2026-04-21 20:13 53.06411 -3.08400 23373 ft 417 kts 148°
2026-04-21 20:14 53.03988 -3.05741 23373 ft 417 kts 148°
2026-04-21 20:14 53.01572 -3.03090 23389 ft 417 kts 147°
2026-04-21 20:14 52.99145 -3.00432 23394 ft 417 kts 147°
2026-04-21 20:14 52.96720 -2.97782 23379 ft 417 kts 148°
2026-04-21 20:15 52.94299 -2.95144 23375 ft 417 kts 149°
2026-04-21 20:15 52.91732 -2.92935 23365 ft 415 kts 161°
2026-04-21 20:15 52.88993 -2.91557 23362 ft 411 kts 172°
2026-04-21 20:15 52.86170 -2.91011 23361 ft 406 kts 183°
2026-04-21 20:16 52.83365 -2.91273 23363 ft 401 kts 193°
2026-04-21 20:16 52.80606 -2.91935 23356 ft 401 kts 193°
2026-04-21 20:16 52.77838 -2.92589 23360 ft 402 kts 193°
2026-04-21 20:16 52.75064 -2.93233 23360 ft 402 kts 193°
2026-04-21 20:17 52.72293 -2.93874 23347 ft 402 kts 193°
2026-04-21 20:17 52.69492 -2.94269 23350 ft 405 kts 187°
2026-04-21 20:17 52.66684 -2.94499 23353 ft 405 kts 187°
2026-04-21 20:17 52.63864 -2.94731 23358 ft 406 kts 187°
2026-04-21 20:18 52.62002 -2.94885 23353 ft 406 kts 187°
2026-04-21 20:18 52.58236 -2.95197 23165 ft 399 kts 187°
2026-04-21 20:18 52.55495 -2.95420 22892 ft 391 kts 187°
2026-04-21 20:18 52.52793 -2.95640 22613 ft 386 kts 187°
2026-04-21 20:19 52.50119 -2.95860 22346 ft 383 kts 187°
2026-04-21 20:19 52.47463 -2.96080 22080 ft 381 kts 186°
2026-04-21 20:19 52.44821 -2.96300 21812 ft 379 kts 186°
2026-04-21 20:19 52.42192 -2.96518 21546 ft 377 kts 186°
2026-04-21 20:20 52.39593 -2.96729 21158 ft 373 kts 185°
2026-04-21 20:20 52.37002 -2.96938 20673 ft 371 kts 185°
2026-04-21 20:20 52.34417 -2.97148 20181 ft 370 kts 185°
2026-04-21 20:20 52.31889 -2.97352 19709 ft 368 kts 186°
2026-04-21 20:21 52.29329 -2.97557 19230 ft 367 kts 185°
2026-04-21 20:21 52.26778 -2.97762 18791 ft 365 kts 185°
2026-04-21 20:21 52.24244 -2.97967 18294 ft 364 kts 184°
2026-04-21 20:21 52.21733 -2.98172 17859 ft 360 kts 185°
2026-04-21 20:22 52.19239 -2.98373 17425 ft 356 kts 184°
2026-04-21 20:22 52.14332 -2.98780 16584 ft 350 kts 183°
2026-04-21 20:22 52.11903 -2.98980 16200 ft 347 kts 182°
2026-04-21 20:23 52.09539 -2.99173 16125 ft 341 kts 182°
2026-04-21 20:23 52.07171 -2.99365 16013 ft 340 kts 182°
2026-04-21 20:23 52.04820 -2.99551 15867 ft 337 kts 182°
2026-04-21 20:23 52.02475 -2.99738 15765 ft 337 kts 182°
2026-04-21 20:24 52.00132 -2.99929 15644 ft 338 kts 182°
2026-04-21 20:24 51.97779 -3.00119 15520 ft 338 kts 182°
2026-04-21 20:24 51.95433 -3.00027 15386 ft 336 kts 171°
2026-04-21 20:24 51.93159 -2.99201 14962 ft 338 kts 160°
2026-04-21 20:25 51.90941 -2.97875 14429 ft 340 kts 158°
2026-04-21 20:25 51.88716 -2.96525 13874 ft 341 kts 157°
2026-04-21 20:25 51.86501 -2.95185 13434 ft 338 kts 157°
2026-04-21 20:25 51.84313 -2.93869 13029 ft 333 kts 155°
2026-04-21 20:26 51.82156 -2.92573 12586 ft 330 kts 157°
2026-04-21 20:26 51.80702 -2.91702 12251 ft 329 kts 158°
2026-04-21 20:26 51.78587 -2.90441 11800 ft 326 kts 157°
2026-04-21 20:26 51.76484 -2.89192 11230 ft 319 kts 157°
2026-04-21 20:27 51.74418 -2.87965 10568 ft 311 kts 156°
2026-04-21 20:27 51.72442 -2.86833 10392 ft 293 kts 161°
2026-04-21 20:27 51.70417 -2.86368 10185 ft 290 kts 176°
2026-04-21 20:27 51.68406 -2.86709 9761 ft 292 kts 186°
2026-04-21 20:28 51.66432 -2.87233 9405 ft 289 kts 185°
2026-04-21 20:28 51.64457 -2.87743 8972 ft 285 kts 185°
2026-04-21 20:28 51.62516 -2.88239 8257 ft 282 kts 184°
2026-04-21 20:28 51.60583 -2.88729 7590 ft 278 kts 184°
2026-04-21 20:29 51.58666 -2.89213 7090 ft 278 kts 183°
2026-04-21 20:29 51.56775 -2.89694 6753 ft 273 kts 183°
2026-04-21 20:29 51.54908 -2.90167 6337 ft 271 kts 183°
2026-04-21 20:29 51.53061 -2.90636 5688 ft 266 kts 183°
2026-04-21 20:30 51.51241 -2.91096 4994 ft 263 kts 182°
2026-04-21 20:30 51.49443 -2.91550 4284 ft 261 kts 182°
2026-04-21 20:30 51.47697 -2.91998 3940 ft 245 kts 182°
2026-04-21 20:30 51.46053 -2.92421 3520 ft 234 kts 181°
2026-04-21 20:31 51.44469 -2.92822 3111 ft 228 kts 180°
2026-04-21 20:31 51.42908 -2.93211 2734 ft 224 kts 180°
2026-04-21 20:31 51.41388 -2.93594 2567 ft 218 kts 180°
2026-04-21 20:31 51.39914 -2.93907 2492 ft 204 kts 169°
2026-04-21 20:32 51.38673 -2.93355 2517 ft 169 kts 139°
2026-04-21 20:32 51.37921 -2.92204 2503 ft 136 kts 115°
2026-04-21 20:32 51.37583 -2.90885 2506 ft 128 kts 97°
2026-04-21 20:32 51.37563 -2.89474 2521 ft 127 kts 86°
2026-04-21 20:33 51.37620 -2.88149 2497 ft 116 kts 86°
2026-04-21 20:33 51.37671 -2.86887 2329 ft 112 kts 86°
2026-04-21 20:33 51.37722 -2.85637 2175 ft 112 kts 85°
2026-04-21 20:33 51.37772 -2.84392 2024 ft 112 kts 85°
2026-04-21 20:34 51.37821 -2.83152 1882 ft 111 kts 85°
2026-04-21 20:34 51.37871 -2.81916 1728 ft 112 kts 85°
2026-04-21 20:34 51.37921 -2.80669 1588 ft 113 kts 86°
2026-04-21 20:34 51.37971 -2.79399 1419 ft 116 kts 83°
2026-04-21 20:35 51.38024 -2.78087 1256 ft 119 kts 84°
2026-04-21 20:35 51.38077 -2.76759 1091 ft 121 kts 83°
2026-04-21 20:35 51.38130 -2.75404 929 ft 123 kts 84°
2026-04-21 20:35 51.38178 -2.74060 738 ft 120 kts 85°
2026-04-21 20:36 51.38234 -2.72720 642 ft 118 kts 82°
2026-04-21 20:36 51.38276 -2.71707 609 ft 51 kts 86°
2026-04-21 20:36 51.38290 -2.71351 604 ft 27 kts 86°
2026-04-21 20:36 51.38300 -2.71072 603 ft 24 kts 86°
2026-04-21 20:37 51.38309 -2.70856 612 ft 9 kts 86°
2026-04-21 20:37 51.38325 -2.70778 621 ft 7 kts 50°
2026-04-21 20:37 51.38369 -2.70746 621 ft 7 kts 19°
2026-04-21 20:37 51.38416 -2.70720 619 ft 8 kts 19°
2026-04-21 20:38 51.38468 -2.70747 620 ft 9 kts 298°
2026-04-21 20:38 51.38469 -2.70834 613 ft 7 kts 266°
2026-04-21 20:38 51.38466 -2.70917 618 ft 11 kts 266°
2026-04-21 20:38 51.38462 -2.71034 614 ft 6 kts 266°
2026-04-21 20:39 51.38461 -2.71054 615 ft 3 kts 267°
2026-04-21 20:39 51.38480 -2.71073 623 ft 5 kts 342°
2026-04-21 20:39 51.38508 -2.71076 614 ft 4 kts 355°
2026-04-21 20:39 51.38521 -2.71078 616 ft 2 kts 356°
2026-04-21 20:40 51.38523 -2.71078 615 ft 0 kts 356°